Hourly Weather Roundup
Issued by NWS Central Illinois

Home | Current Version | Previous Version | Text Only | Print | Product List | Glossary On
Versions: 1 2 3 4 5 6 7 8 9 10 11 12 13 14 15 16 17 18 19 20 21 22 23 24 25 26 27 28 29 30 31 32 33 34 35 36 37 38 39 40 41 42 43 44 45 46 47 48 49 50
000
NZUS43 KILX 201910
HWRILX

Area Weather Roundup
National Weather Service Lincoln IL
200 PM CDT SUN AUG 20 2017

NOTE:  "FAIR" indicates few or no clouds below 12,000 feet, with
       no sigificant weather and/or obstructions to visibility.


CITY           SKY/WX    TMP DP  RH WIND       PRES   REMARKS
Bloomington    CLOUDY    84  71  65 S5        30.05F HX  89
Champaign      MOSUNNY   87  72  60 SW6       30.04F HX  93
Danville       PTSUNNY   85  71  60 SE6       30.02F HX  90
Decatur        MOSUNNY   89  70  53 VRB6      30.03F HX  94
Effingham      MOSUNNY   90  73  56 SW8       30.04F HX  98
Flora          PTSUNNY   92  75  57 SW6       30.02F HX 103
Galesburg      PTSUNNY   79  70  73 E5        30.00S HX  82
Jacksonville   PTSUNNY   85  67  54 E10       29.99F HX  88
Lacon          CLOUDY    80  70  73 E8        30.00F HX  83
Lawrenceville  PTSUNNY   90  72  55 SW12      30.02F HX  97
Litchfield     CLOUDY    87  72  61 SE3       30.02F HX  93
$$


CITY           SKY/WX    TMP DP  RH WIND       PRES   REMARKS
Lincoln        CLOUDY    87  73  63 E6        30.00F HX  94
Macomb         CLOUDY    81  71  70 SE12      30.00F HX  85
Mattoon        MOSUNNY   87  73  62 S7        30.03S HX  94
Mt Carmel AP   PTSUNNY   90  74  60 S8        30.02F HX  99
Olney-Noble AP CLOUDY    90  73  57 SW3       30.03S HX  98
Paris AP       PTSUNNY   88  73  60 SE7       30.05S HX  95
Peoria         CLOUDY    82  69  64 NE6       30.01F HX  85
Pontiac        CLOUDY    84  74  72 SW6       30.04S HX  92
Rantoul        CLOUDY    89  73  59 S5        30.04F HX  97
Robinson       MOSUNNY   88  74  61 SW3       30.03F HX  96
Springfield    CLOUDY    89  72  56 E6        30.00F HX  96
Taylorville    PTSUNNY   87  74  64 S3        30.02F HX  96
$$

...REGIONAL REPORTS...


CITY           SKY/WX    TMP DP  RH WIND       PRES   REMARKS
Chicago O`Hare PTSUNNY   87  65  47 W9        30.00F HX  89
Kankakee       MOSUNNY   85  70  61 S5        30.05R HX  89
Moline         CLOUDY    76  67  73 E8        29.98
Mount Sterling CLOUDY    82  70  66 SE3       29.99S HX  86
Mount Vernon     N/A     92  75  57 S8        30.02F HX 103
Pittsfield     CLOUDY    84  72  67 SE9       30.00S HX  90
Quincy         PTSUNNY   83  65  54 S9        29.98S HX  85
Rockford       CLOUDY    80  66  62 N5        30.03F HX  82
$$


CITY           SKY/WX    TMP DP  RH WIND       PRES   REMARKS
Burlington     SUNNY     81  71  71 SE9       29.97S HX  85
Cedar Rapids   CLOUDY    78  68  71 SE13      29.95R HX  80
Des Moines     CLOUDY    77  68  73 W10       29.94F
Kirksville     CLOUDY    89  67  47 SW14G21   29.98R HX  92
Ottumwa        CLOUDY    83  65  54 SW7       29.94R HX  85
St Louis       CLOUDY    88  65  46 E10       30.01F HX  90
$$


CITY           SKY/WX    TMP DP  RH WIND       PRES   REMARKS
Terre Haute    MOSUNNY   88  69  53 SE7       30.04F HX  92
Evansville     MOSUNNY   92  70  48 S7        30.04F HX  97
Indianapolis   CLOUDY    90  63  40 VRB5      30.05F HX  91
Lafayette      MOSUNNY   86  65  49 SW7       30.04F HX  88
Madison        CLOUDY    78  66  66 VRB3      30.00F HX  80
Milwaukee      CLOUDY    83  65  54 S7        30.01F HX  85
$$





USA.gov is the U.S. government's official web portal to all federal, state and local government web resources and services.